STARLINK-5233 (54160 NORAD) Tracking and Keplerian Element Data

This shows tracking and keplerian element data for the satellite.

Feedback or suggestion? Click here.




ElementValue
Catalog54160
NameSTARLINK-5233
Epoch Orbit378
Epoch Day324.91667824
Epoch Year2022
RAAN25.7209
Inclination53.2194
Eccentricity0.0002992
Argument of Perigee18.4146
Mean Anonmoly294.3871
Mean Motion15.73163966
Decay Rate0.00035268
L11 54160U 22141D 22324.91667824 .00035268 00000+0 25501-3 0 9991
L22 54160 53.2194 25.7209 0002992 18.4146 294.3871 15.73163966 3782



Live tracking and technical data element details for STARLINK-5233 (NORAD 54160). STARLINK-5233 can be tracked NOW for your location showing map with azimuth and elevation plus other details from your city location.







IsCatalogInMostPopularTable: catalog: 54160, numindb: 7
Update: records affected: 1



GetName: 54160 STARLINK-5233

Hit Count: updated at: Sun, 04 Dec 2022 22:11:35 GMT